User: anonymous   Login
Location: Unspecified
(0.0000°N, 0.0000°E)
Time: 12:37:14
(UTC+00:00)
Language:

CERISE - Orbit

View from above orbital plane
View from above orbital plane
View from above satellite
View from above satellite

Ground track
Ground track

The orbit data is extracted from the following two-line orbital elements,

1 23606U 95033B   18171.87641199 +.00000016 +00000-0 +74079-5 0  9999
2 23606 098.3006 137.7323 0005181 164.0401 196.0982 14.94625406241757
Epoch (UTC): 20 June 2018 21:02:01
Eccentricity: 0.0005181
inclination: 98.3006°
perigee height: 580 km
apogee height: 587 km
right ascension of ascending node: 137.7323°
argument of perigee: 164.0401°
revolutions per day: 14.94625406
mean anomaly at epoch: 196.0982°
orbit number at epoch: 24175

The dashed part of the orbit path shows where the satellite is in the earth's shadow,  

DLR